This demonstration page uses our WeatherBlox Daily Observations layout. Learn more.

Left ArrowRight Arrow

41.12389, -100.76542

Hourly Observations for March 12, 2020

Temp ( °F °C ) Dew Point ( °F °C ) Humidity (%) Winds ( mph kmh ) Pressure ( in mb ) Visibility ( mi km ) Precip ( " mm )
12:53 am 00:53 Mostly Cloudy 52 11.1 32 0 47 47 W 6 9 29.62 1003 10 16 0.00 0.00
1:53 am 01:53 Cloudy with Light Rain 64 17.8 34 1.1 33 33 SW 16 26 29.56 1001 10 16 0.00 0.00
2:02 am 02:02 Mostly Cloudy 60 15.6 34 1.1 38 38 WSW 10 17 29.57 1001 10 16 0.00 0.00
2:53 am 02:53 Clear 56 13.3 33 0.6 42 42 WNW 9 15 29.59 1002 10 16 0.00 0.00
3:53 am 03:53 Clear 46 7.8 33 0.6 61 61 WNW 6 9 29.61 1003 10 16 0.00 0.00
4:53 am 04:53 Clear 44 6.7 32 0 63 63 NNW 10 17 29.61 1003 10 16 0.00 0.00
5:53 am 05:53 Clear 46 7.8 30 -1.1 54 54 N 21 33 29.67 1005 10 16 0.00 0.00
6:53 am 06:53 Clear 41 5 31 -0.6 67 67 N 17 28 29.75 1008 10 16 0.00 0.00
7:53 am 07:53 Clear 39 3.9 32 0 76 76 NNW 9 15 29.80 1009 10 16 0.00 0.00
8:53 am 08:53 Mostly Cloudy 42 5.6 33 0.6 71 71 N 15 24 29.84 1010 10 16 0.00 0.00
9:38 am 09:38 Partly Cloudy 45 7.2 32 0 61 61 N 18 30 29.89 1012 10 16 0.00 0.00
9:53 am 09:53 Sunny 46 7.8 32 0 58 58 NNE 17 28 29.87 1012 10 16 0.00 0.00
10:46 am 10:46 Mostly Cloudy 46 7.8 31 -0.6 56 56 N 22 35 29.92 1013 10 16 0.00 0.00
10:53 am 10:53 Mostly Cloudy 45 7.2 31 -0.6 58 58 N 22 35 29.89 1012 10 16 0.00 0.00
11:30 am 11:30 Partly Cloudy 47 8.3 31 -0.6 54 54 NNE 28 44 29.92 1013 10 16 0.00 0.00
11:53 am 11:53 Mostly Sunny 49 9.4 31 -0.6 50 50 NNE 25 41 29.91 1013 10 16 0.00 0.00
12:53 pm 12:53 Cloudy 47 8.3 28 -2.2 48 48 NNE 21 33 29.96 1015 10 16 0.00 0.00
1:53 pm 13:53 Mostly Cloudy 50 10 26 -3.3 39 39 NNE 21 33 29.95 1014 10 16 0.00 0.00
2:53 pm 14:53 Sunny 51 10.6 23 -5 33 33 N 20 31 29.96 1015 10 16 0.00 0.00
3:53 pm 15:53 Mostly Sunny 51 10.6 22 -5.6 32 32 N 22 35 29.98 1015 10 16 0.00 0.00
4:53 pm 16:53 Sunny 51 10.6 19 -7.2 28 28 N 20 31 29.99 1016 10 16 0.00 0.00
5:53 pm 17:53 Mostly Sunny 50 10 17 -8.3 27 27 N 18 30 30.03 1017 10 16 0.00 0.00
6:53 pm 18:53 Partly Cloudy 47 8.3 18 -7.8 31 31 NNE 16 26 30.08 1019 10 16 0.00 0.00
7:53 pm 19:53 Partly Cloudy 41 5 19 -7.2 41 41 NNE 9 15 30.12 1020 10 16 0.00 0.00
8:53 pm 20:53 Mostly Cloudy 37 2.8 19 -7.2 48 48 NNE 8 13 30.14 1021 10 16 0.00 0.00
9:53 pm 21:53 Clear 32 0 18 -7.8 56 56 Calm 30.15 1021 10 16 0.00 0.00
10:53 pm 22:53 Clear 30 -1.1 17 -8.3 58 58 VRB 3 6 30.18 1022 10 16 0.00 0.00
11:53 pm 23:53 Partly Cloudy 26 -3.3 17 -8.3 69 69 Calm 30.20 1023 10 16 0.00 0.00

Powered by AerisWeather